Temp
16 17 17 17 17 18 18 18 18 18 19 19 19 19 20 20 21 20 21 20 20 21 21 21 20 20 20 19 18 17 12 12 12 12 11 11 10 9 9 9 9 8 8 8 7
16 16 17 17 18 18 18 18 18 19 19 19 19 20 20 20 20 20 20 21 21 21 21 21 21 20 19 18 17 13 11 13 11 11 9 10 10 10 9 8 8 8 7 7 7
17 17 16 17 17 18 18 18 18 18 19 19 20 20 20 20 20 20 20 21 21 21 21 21 20 20 17 16 13 12 11 11 10 10 11 9 9 9 8 8 8 8 8 7 7
16 17 17 17 17 17 18 18 18 19 19 19 20 20 20 20 19 20 20 21 20 20 20 20 20 19 13 12 13 11 10 11 11 11 11 10 9 8 9 8 9 8 8 7 7
17 16 17 17 17 17 18 18 18 19 19 19 20 20 20 20 20 20 20 20 20 20 20 20 20 18 13 12 12 10 10 10 11 11 10 10 8 8 8 8 8 8 7 7 7
16 17 17 17 17 18 18 18 18 19 19 19 20 20 20 19 20 20 20 20 20 20 20 20 20 19 13 11 10 10 10 9 10 10 10 9 8 9 8 8 8 8 7 7 6
16 17 17 17 17 18 18 18 18 19 19 20 20 20 20 19 19 19 19 20 20 19 20 19 19 19 14 10 11 11 9 10 9 10 9 9 8 7 9 8 8 7 7 6 6
16 16 17 17 17 18 18 18 19 19 19 20 20 20 20 19 19 19 19 19 19 19 19 18 18 17 14 12 11 10 9 10 10 9 9 9 9 8 8 8 7 7 7 6 6
16 16 17 17 18 18 18 19 19 19 19 19 20 20 20 19 19 19 19 19 18 18 18 18 19 14 12 10 10 8 11 11 11 9 8 8 9 8 8 7 7 7 6 6 5
16 16 17 17 18 18 18 19 19 19 19 19 19 19 19 19 19 19 18 19 18 18 18 18 16 10 8 10 13 13 11 11 10 9 8 7 6 7 7 7 7 6 6 5 5
15 16 16 17 18 18 18 19 19 19 19 20 19 19 19 19 19 19 18 18 18 18 15 15 13 14 14 12 13 13 12 12 11 8 8 6 6 6 7 6 5 6 5 5 5
15 16 16 17 17 18 18 19 18 18 17 19 19 19 19 19 19 18 18 18 18 15 15 13 14 13 13 13 13 12 13 12 11 8 7 7 6 6 5 5 6 6 5 5 5
15 15 16 17 17 18 18 18 18 18 17 18 18 18 18 18 18 18 18 18 16 15 14 14 14 14 14 13 13 12 12 12 11 9 8 7 7 6 5 5 6 6 6 5 5
14 15 16 17 17 17 17 17 18 18 13 16 17 18 18 18 17 17 17 18 15 14 13 14 13 14 13 13 12 13 11 11 11 9 9 8 10 7 5 4 4 4 5 5 5
14 15 15 16 17 17 17 17 18 18 15 17 17 17 17 17 16 16 17 17 14 13 14 14 13 13 14 13 12 12 11 10 10 8 8 8 7 7 4 5 2 3 5 5 5
14 14 15 15 16 16 17 18 18 14 15 16 16 16 16 16 16 16 17 17 15 13 11 12 12 12 12 11 11 10 10 7 6 6 10 9 8 8 4 5 5 3 5 5 4
13 14 15 15 16 16 17 17 13 14 17 16 16 15 15 15 15 15 15 14 13 14 14 12 12 11 12 12 11 10 8 10 13 10 12 7 7 8 7 4 5 3 6 5 4
13 14 15 15 15 16 17 14 15 15 15 16 15 15 15 15 15 14 14 13 12 12 10 12 14 11 11 11 12 10 9 10 16 12 10 8 8 11 6 6 6 6 6 5 4
13 14 15 15 15 16 16 12 13 14 17 15 16 16 15 15 15 15 13 12 11 10 13 12 14 10 10 10 10 10 10 8 7 6 7 8 8 7 5 4 4 5 5 5 4
13 13 14 14 15 15 12 12 13 15 16 16 16 16 15 14 15 14 13 13 13 11 12 12 14 10 10 10 9 10 7 11 7 11 14 9 8 9 6 4 1 2 4 5 4
12 14 14 14 14 14 10 10 13 16 17 17 15 15 15 14 13 13 14 13 12 11 12 11 11 11 10 9 9 8 8 5 5 6 7 9 11 6 7 5 3 3 5 5 5
11 10 13 13 12 7 8 11 16 16 17 17 16 16 14 13 13 13 14 12 11 11 12 11 9 11 11 8 8 9 10 7 6 8 1 1 8 7 6 6 7 7 7 6 5
11 12 12 13 9 7 9 12 15 15 15 16 16 16 16 14 16 13 13 9 10 11 11 10 9 11 13 9 8 9 7 5 3 2 3 5 9 4 4 5 6 7 8 6 5
11 8 11 12 10 9 11 13 14 15 15 16 16 16 16 15 13 14 12 9 10 10 11 11 7 11 11 14 8 9 7 5 6 2 3 5 9 7 5 4 4 6 7 7 6
10 8 9 7 8 9 10 12 12 14 14 15 15 14 15 14 14 13 10 9 9 10 9 8 10 8 9 9 9 10 9 4 5 7 10 10 6 9 7 4 7 8 7 6 5
9 9 9 8 9 8 9 10 11 13 13 13 13 14 12 13 13 14 10 9 11 7 8 5 10 9 11 10 8 8 7 6 6 6 5 6 7 6 8 7 6 7 7 6 6
8 9 9 6 6 7 7 9 11 13 14 14 12 13 12 12 14 14 12 12 11 7 6 7 7 7 11 8 8 10 7 6 5 5 8 8 11 5 5 4 6 7 7 8 8
Height
1535 1534 1533 1533 1533 1534 1534 1534 1534 1534 1533 1534 1533 1532 1531 1531 1531 1530 1530 1530 1528 1527 1527 1528 1528 1528 1528 1529 1530 1531 1543 1554 1554 1554 1556 1558 1559 1562 1563 1565 1567 1568 1570 1573 1574
1535 1535 1534 1533 1534 1533 1535 1534 1534 1534 1533 1533 1533 1532 1531 1530 1530 1530 1531 1528 1527 1527 1527 1527 1528 1528 1529 1531 1532 1533 1547 1548 1550 1551 1555 1557 1558 1561 1564 1566 1569 1570 1571 1572 1573
1535 1535 1534 1534 1533 1534 1533 1534 1534 1533 1534 1533 1532 1531 1530 1530 1531 1530 1529 1528 1527 1527 1527 1528 1528 1529 1531 1533 1537 1540 1549 1549 1552 1551 1552 1556 1559 1561 1562 1567 1567 1568 1570 1572 1573
1536 1535 1534 1534 1534 1533 1533 1533 1533 1533 1532 1532 1532 1532 1530 1530 1534 1530 1529 1528 1527 1527 1527 1528 1529 1530 1535 1539 1541 1547 1550 1550 1553 1554 1555 1557 1560 1562 1564 1565 1566 1568 1571 1572 1572
1535 1534 1534 1534 1533 1533 1533 1532 1532 1532 1532 1532 1531 1531 1531 1531 1531 1530 1529 1527 1527 1527 1527 1528 1529 1530 1537 1541 1543 1548 1552 1553 1554 1555 1557 1559 1561 1563 1564 1566 1567 1569 1570 1571 1571
1535 1534 1533 1533 1533 1533 1532 1531 1531 1531 1531 1531 1531 1531 1531 1533 1531 1530 1529 1528 1527 1526 1526 1527 1528 1530 1536 1543 1546 1551 1552 1556 1557 1558 1558 1560 1563 1563 1566 1566 1568 1569 1571 1571 1571
1534 1533 1533 1532 1531 1532 1532 1530 1530 1530 1530 1530 1530 1530 1530 1533 1531 1531 1530 1529 1528 1527 1526 1527 1529 1531 1537 1546 1551 1552 1557 1558 1559 1559 1560 1561 1565 1563 1563 1566 1567 1569 1570 1570 1571
1534 1533 1532 1531 1530 1530 1530 1530 1529 1529 1529 1529 1529 1529 1529 1530 1531 1531 1531 1530 1530 1529 1528 1530 1531 1532 1539 1547 1551 1555 1558 1562 1558 1559 1561 1563 1562 1561 1563 1565 1567 1568 1569 1569 1570
1533 1532 1531 1530 1530 1529 1528 1529 1529 1528 1528 1529 1529 1529 1529 1529 1530 1531 1531 1531 1531 1531 1531 1532 1532 1538 1545 1549 1557 1560 1560 1560 1557 1558 1561 1563 1559 1560 1562 1564 1566 1566 1568 1569 1569
1532 1531 1530 1529 1528 1528 1527 1527 1527 1528 1528 1528 1528 1531 1529 1529 1529 1529 1531 1531 1531 1532 1533 1534 1535 1542 1548 1553 1560 1555 1559 1559 1558 1558 1560 1561 1561 1559 1561 1562 1563 1565 1567 1567 1566
1531 1530 1528 1528 1527 1527 1527 1526 1529 1529 1527 1526 1526 1527 1527 1528 1529 1529 1529 1531 1531 1533 1536 1536 1542 1547 1544 1547 1547 1550 1553 1554 1553 1555 1558 1560 1559 1557 1558 1560 1561 1563 1565 1564 1566
1530 1529 1528 1526 1526 1526 1526 1526 1525 1528 1527 1525 1525 1526 1527 1527 1528 1528 1530 1532 1532 1536 1536 1542 1546 1543 1544 1545 1547 1550 1552 1553 1554 1555 1559 1558 1557 1555 1556 1556 1557 1560 1561 1562 1564
1529 1528 1527 1526 1525 1526 1526 1528 1527 1526 1526 1524 1525 1525 1526 1528 1528 1528 1530 1530 1533 1536 1538 1543 1544 1543 1543 1547 1547 1551 1551 1552 1554 1556 1557 1557 1556 1555 1555 1555 1557 1557 1559 1561 1563
1528 1527 1526 1526 1528 1526 1527 1527 1528 1528 1535 1527 1525 1525 1526 1526 1528 1528 1529 1532 1534 1538 1540 1542 1542 1543 1545 1546 1548 1550 1551 1552 1553 1559 1562 1559 1558 1553 1555 1555 1555 1555 1556 1558 1560
1527 1526 1525 1525 1525 1527 1528 1528 1528 1529 1555 1527 1526 1526 1526 1528 1529 1529 1529 1530 1535 1538 1541 1542 1543 1544 1545 1546 1547 1551 1551 1553 1554 1561 1563 1561 1569 1551 1556 1554 1551 1551 1553 1556 1558
1526 1525 1524 1525 1525 1526 1526 1527 1529 1542 1550 1528 1524 1526 1528 1528 1528 1529 1530 1531 1533 1538 1541 1544 1544 1544 1545 1547 1548 1551 1553 1558 1564 1568 1563 1560 1564 1550 1556 1547 1543 1545 1549 1553 1555
1525 1524 1524 1523 1524 1525 1526 1527 1542 1549 1523 1526 1525 1525 1527 1530 1529 1529 1531 1534 1538 1544 1545 1545 1546 1545 1545 1547 1549 1552 1559 1564 1552 1562 1557 1564 1566 1544 1539 1541 1540 1541 1545 1549 1550
1522 1523 1523 1523 1522 1524 1525 1530 1543 1528 1527 1521 1522 1525 1527 1528 1530 1530 1533 1537 1536 1538 1551 1551 1548 1546 1546 1546 1547 1551 1556 1566 1549 1563 1565 1562 1559 1536 1539 1539 1539 1538 1544 1546 1548
1520 1520 1520 1521 1522 1523 1526 1542 1534 1527 1518 1523 1524 1526 1528 1526 1529 1531 1533 1536 1533 1533 1542 1548 1544 1547 1546 1547 1549 1553 1557 1559 1572 1578 1575 1558 1546 1538 1539 1540 1540 1539 1543 1543 1545
1519 1519 1519 1519 1520 1523 1527 1531 1524 1516 1518 1520 1525 1524 1530 1528 1530 1533 1533 1529 1530 1532 1531 1537 1542 1548 1549 1548 1550 1549 1555 1558 1570 1567 1552 1555 1552 1541 1537 1536 1538 1537 1538 1539 1542
1519 1519 1518 1518 1520 1522 1530 1528 1518 1514 1514 1519 1521 1522 1524 1526 1528 1532 1529 1529 1528 1532 1533 1535 1541 1549 1551 1549 1549 1556 1557 1566 1570 1576 1581 1572 1541 1525 1523 1525 1528 1528 1532 1534 1536
1518 1518 1515 1517 1522 1524 1525 1520 1515 1513 1513 1513 1516 1516 1521 1523 1527 1530 1527 1528 1528 1529 1534 1535 1544 1547 1544 1548 1546 1545 1547 1553 1569 1571 1596 1597 1550 1518 1519 1520 1521 1524 1526 1529 1533
1516 1514 1514 1515 1523 1524 1518 1515 1513 1513 1512 1513 1514 1515 1514 1520 1522 1524 1523 1528 1528 1529 1532 1534 1544 1549 1541 1550 1549 1546 1547 1553 1562 1572 1581 1579 1538 1518 1518 1518 1518 1520 1522 1525 1529
1515 1516 1513 1514 1512 1513 1515 1514 1514 1511 1511 1511 1512 1513 1516 1517 1520 1522 1525 1528 1529 1529 1530 1531 1542 1540 1545 1531 1540 1543 1545 1550 1549 1575 1566 1551 1522 1517 1515 1515 1514 1516 1518 1520 1523
1513 1511 1512 1516 1513 1511 1512 1511 1512 1512 1510 1509 1512 1513 1514 1520 1519 1522 1524 1527 1529 1530 1531 1532 1537 1541 1534 1532 1532 1530 1534 1545 1546 1536 1532 1519 1526 1501 1504 1505 1504 1508 1513 1515 1518
1508 1509 1511 1511 1510 1511 1511 1510 1511 1509 1509 1509 1510 1509 1511 1516 1514 1516 1521 1523 1520 1530 1532 1533 1534 1536 1530 1528 1533 1531 1528 1532 1532 1530 1530 1524 1514 1493 1494 1496 1498 1501 1505 1507 1510
1504 1505 1507 1510 1511 1512 1510 1506 1506 1508 1506 1505 1505 1509 1511 1510 1510 1510 1511 1513 1513 1519 1530 1535 1536 1541 1533 1533 1531 1524 1511 1516 1519 1516 1509 1515 1488 1490 1492 1491 1491 1493 1496 1498 1502
Wind_Speed
7 4 2 2 2 2 2 2 1 2 1 4 5 6 8 6 4 1 6 9 8 3 2 4 2 2 3 6 6 2 4 2 6 6 4 10 4 3 5 9 5 4 6 9 4
6 5 3 1 1 1 1 2 2 3 3 4 6 7 7 6 2 2 8 9 6 2 2 4 1 1 4 5 6 6 4 2 1 3 5 6 4 8 5 8 6 11 11 7 2
6 4 3 2 0 2 1 3 3 4 4 4 7 8 5 3 2 2 8 7 4 2 3 3 4 2 5 6 8 4 3 2 7 7 17 9 6 5 13 1 6 10 10 4 2
6 5 3 3 2 2 3 3 4 5 4 5 6 9 3 1 0 5 7 4 5 1 3 4 3 3 5 4 4 6 7 4 5 8 8 7 11 6 3 3 8 11 7 3 3
7 5 4 4 4 3 4 4 4 5 5 5 6 5 2 2 2 6 7 5 5 2 4 4 4 5 5 6 4 5 3 7 9 10 11 11 6 5 9 12 10 7 7 2 3
7 6 5 3 5 5 4 5 5 6 5 5 5 4 2 2 2 4 7 6 3 2 4 6 3 9 11 6 5 5 14 10 5 6 7 6 4 3 10 10 8 7 6 3 2
7 6 6 5 4 6 7 6 6 6 5 5 5 4 2 3 2 2 4 7 7 5 7 9 12 2 8 6 11 9 5 3 2 4 2 8 1 5 13 11 10 10 7 3 2
7 8 7 7 6 5 7 8 6 6 5 4 4 2 1 3 1 2 3 6 7 10 8 7 6 13 6 17 5 4 4 2 2 5 4 2 5 4 15 13 12 10 7 4 2
8 7 8 7 7 6 6 7 7 5 4 4 3 2 2 2 2 3 3 2 6 10 11 6 3 9 5 4 3 5 1 2 2 9 4 2 3 6 14 13 13 11 8 5 3
8 8 8 8 8 6 6 5 5 5 4 4 6 3 3 2 2 1 4 4 2 3 2 2 5 4 3 4 2 2 1 3 4 4 3 4 7 2 15 13 15 12 9 7 5
9 9 8 9 7 6 4 2 2 1 6 4 2 2 1 3 2 2 2 4 2 2 2 4 5 0 4 4 2 2 2 3 2 4 4 6 6 6 14 13 14 13 12 9 5
10 9 9 8 6 4 2 2 4 1 4 8 7 6 4 5 1 1 2 3 2 2 1 5 0 2 4 3 1 2 2 3 1 2 5 1 8 5 10 11 18 16 13 11 7
10 10 9 8 4 2 2 2 1 1 1 3 5 4 3 6 2 2 2 3 3 3 1 4 1 3 2 2 1 1 2 1 2 1 1 6 4 1 2 4 10 13 12 11 7
10 9 8 6 1 2 2 1 1 1 4 4 2 2 5 4 1 0 3 2 4 4 3 2 1 2 1 1 3 2 1 1 1 3 2 3 4 2 2 5 6 12 14 12 7
10 9 7 3 1 4 2 0 1 1 3 1 1 3 4 3 5 2 2 3 5 3 3 1 2 1 1 1 1 1 2 2 2 2 3 1 3 4 1 6 9 17 17 13 8
10 9 6 4 4 4 2 2 4 5 5 1 3 2 3 1 2 3 2 4 6 4 4 2 1 1 2 2 3 3 3 5 4 3 2 0 3 4 4 6 2 11 19 14 9
9 9 8 5 3 6 3 6 4 3 1 3 3 3 2 2 1 1 2 1 4 3 1 1 0 1 1 3 2 4 4 4 4 4 4 2 2 8 4 5 5 14 20 15 11
10 9 8 6 6 7 6 4 3 3 5 2 3 3 5 5 1 2 3 1 2 4 2 3 3 2 1 1 4 2 4 4 3 2 5 0 5 3 1 3 2 9 15 13 12
11 9 7 7 7 9 7 2 7 6 2 5 2 3 3 2 3 1 4 4 6 7 7 4 2 1 2 1 1 3 2 3 6 1 2 3 6 2 2 3 6 11 14 15 14
10 8 6 6 8 11 3 5 4 4 2 2 6 4 5 4 4 4 4 3 3 2 1 3 0 0 1 3 5 1 5 3 3 1 4 5 5 5 6 9 7 12 19 17 15
7 3 4 9 10 7 4 6 5 6 4 4 5 4 4 5 6 4 3 0 2 3 2 4 3 0 1 5 7 1 1 5 4 3 4 2 7 6 8 8 12 23 22 20 18
4 0 5 13 3 1 3 5 3 4 5 2 3 4 7 6 5 3 4 3 3 6 5 2 4 3 2 1 0 1 4 5 5 4 1 3 6 3 6 5 15 19 21 19 18
4 4 7 15 3 2 4 4 3 2 3 4 3 4 2 5 3 5 3 1 2 3 6 5 1 2 2 2 3 3 4 4 5 3 6 5 6 2 4 6 13 17 19 20 19
3 1 4 10 5 6 4 4 4 4 4 4 2 2 1 3 2 5 4 1 1 3 3 5 3 6 6 4 4 4 5 5 5 4 5 7 8 6 8 9 13 19 21 21 22
5 4 3 3 4 5 4 2 4 4 5 4 1 5 6 5 2 4 1 3 1 2 2 3 4 4 5 6 5 5 5 9 10 6 7 5 10 6 8 12 26 27 24 24 25
4 3 3 2 2 6 3 5 6 3 5 4 4 5 6 8 9 7 6 4 6 1 4 2 2 3 4 1 5 6 9 12 11 4 12 3 14 9 10 11 15 27 29 30 29
15 6 3 1 1 4 5 7 7 2 4 3 6 3 3 8 5 2 5 4 10 9 7 4 5 3 5 3 6 7 9 12 6 6 9 10 12 6 5 10 20 27 34 34 32
Wind_Direction
13 18 48 76 89 74 68 59 18 312 292 291 301 317 323 320 306 321 352 345 337 342 148 139 113 43 36 50 49 71 65 132 178 161 145 148 119 113 118 126 90 100 125 131 130
20 7 5 60 135 115 347 352 327 310 308 301 304 317 324 316 250 296 338 339 336 340 161 154 289 166 59 37 26 60 86 165 32 128 143 141 130 137 125 120 94 114 129 133 92
12 12 352 325 249 255 272 319 321 318 310 306 310 320 325 323 255 324 335 346 349 342 174 168 140 118 69 40 21 39 109 115 24 110 140 129 116 132 133 153 182 173 154 145 355
1 0 342 309 285 270 290 302 310 307 303 302 320 318 304 277 290 338 341 339 14 328 178 166 173 89 68 64 45 88 48 94 117 116 122 126 132 110 91 122 145 147 155 163 344
353 346 338 303 280 269 288 296 301 298 294 299 323 327 283 280 290 344 350 342 335 319 228 203 183 127 98 96 69 76 112 75 112 118 112 130 105 127 135 137 144 152 170 178 2
348 336 325 308 284 273 278 289 293 292 286 297 311 321 298 291 313 359 12 4 28 18 238 203 192 129 100 66 62 92 103 108 106 112 130 123 125 141 171 161 162 164 170 181 11
339 332 318 302 282 276 282 284 291 290 283 285 301 300 268 282 296 21 28 48 52 57 97 121 124 103 102 102 111 107 77 61 119 147 130 127 243 227 174 180 174 174 183 183 351
329 328 318 302 287 270 277 290 287 286 266 272 287 286 247 228 277 182 65 56 57 71 98 105 105 99 79 116 75 71 69 44 213 164 154 104 271 170 172 177 169 182 190 202 292
322 323 318 306 292 280 275 287 286 269 240 257 281 251 259 213 237 268 213 120 78 86 89 87 101 89 105 84 45 19 210 230 286 200 138 159 260 172 182 186 181 194 195 207 260
314 316 317 307 294 286 282 280 274 263 252 247 252 286 238 182 209 304 215 191 158 130 80 59 74 82 50 75 250 254 227 258 252 205 156 189 252 191 193 194 195 196 200 214 252
311 312 314 310 299 288 285 269 214 261 231 239 168 248 168 177 191 321 212 194 157 113 59 28 64 262 203 172 152 130 187 240 222 167 156 217 270 222 201 200 199 200 206 218 248
310 312 312 311 301 283 295 154 118 168 319 252 244 232 223 199 212 173 160 177 131 117 88 25 348 182 122 117 152 169 233 265 339 135 176 175 256 255 189 214 208 206 209 218 239
311 312 314 312 301 276 166 153 104 308 141 273 227 210 206 208 233 201 189 151 101 116 81 151 166 147 131 79 84 163 203 239 247 36 209 330 294 297 216 194 200 217 221 219 238
313 313 318 321 251 176 146 170 315 303 57 273 212 205 180 170 120 134 158 138 43 155 121 118 107 168 129 111 121 315 92 95 97 50 277 26 288 288 248 233 215 209 204 217 231
307 308 313 323 251 183 163 123 140 253 326 147 136 157 164 161 140 64 128 126 141 133 101 257 155 158 166 142 158 201 58 60 68 92 32 1 70 261 327 262 233 215 211 218 227
298 303 295 291 243 194 176 153 142 44 258 189 130 146 100 72 93 123 134 104 103 95 49 95 56 57 119 88 81 132 75 50 56 76 4 149 117 272 200 213 255 205 212 214 219
296 296 291 278 231 197 182 160 50 157 60 196 196 148 129 181 154 122 129 100 145 99 255 27 204 67 98 103 62 76 56 342 350 10 233 140 50 247 237 222 218 202 198 203 208
282 296 289 263 225 197 172 55 177 230 223 126 122 103 172 160 238 140 102 235 226 106 122 181 293 165 344 99 159 129 135 145 283 299 285 317 244 255 241 157 188 187 184 195 201
275 285 283 252 228 195 179 104 205 206 179 148 111 144 224 171 175 162 202 208 203 177 166 150 257 8 54 123 97 158 112 164 103 25 2 251 288 265 108 172 169 178 184 198 202
275 287 257 231 206 188 98 224 227 203 118 134 187 166 192 199 162 181 197 200 172 192 135 170 38 274 166 115 38 142 151 75 23 104 295 291 282 248 231 224 210 211 207 207 206
270 276 226 195 175 179 177 228 247 236 176 184 214 164 199 178 175 202 218 258 137 140 126 133 121 254 13 205 174 108 106 54 113 111 168 304 276 209 206 198 199 216 213 210 211
237 189 200 181 159 27 174 204 238 231 197 198 189 182 185 166 169 230 215 225 162 155 157 192 139 189 222 315 67 165 172 147 118 224 63 142 273 190 213 208 204 209 211 211 215
240 222 194 188 173 241 270 270 243 207 223 177 222 225 167 171 187 192 194 93 159 154 155 186 313 4 319 358 345 221 189 111 103 92 198 140 261 200 236 226 209 198 202 207 209
227 270 191 199 193 156 185 236 225 240 242 190 191 115 123 161 279 176 169 135 154 146 150 132 151 182 198 208 132 197 184 178 139 129 182 226 278 208 225 218 205 202 205 208 208
225 249 203 227 242 182 169 217 189 224 218 198 215 203 181 207 176 226 120 121 91 152 99 131 209 185 250 236 186 218 189 183 201 192 185 242 210 240 208 207 213 206 203 205 209
205 196 200 277 257 169 175 213 203 228 168 236 182 220 202 184 191 214 149 207 186 106 170 347 222 157 284 145 205 254 230 205 219 236 265 297 278 208 234 224 210 206 203 209 213
212 223 192 250 155 122 221 207 210 193 231 221 209 147 196 237 252 242 164 151 162 148 173 157 144 111 265 352 313 290 231 190 189 210 189 205 232 168 200 212 214 205 207 214 215